COSMOS 860 COOLANT

Satellite information

Favourite Embed

Satellite Type and Status

DEBRISIN ORBIT

Key statistics

Satellite COSMOS 860 COOLANT at a glance.

Uptime

17898

Days in orbit

Revolutions

≈ 13.9

Per day

Orbit

LEO

Low Earth Orbit

Inclination

64.7

Latest

Satellite identification and parameters

Extended collection of information and parameters for COSMOS 860 COOLANT.

Object identification

Identified? True

Debris? False

Object name: COSMOS 860 COOLANT

International designator: 1976-103H

Object number (NORAD): 29195

Object ID (CCSDS): 29195

Country: COMMONWEALTH OF INDEPENDENT STATES (CIS)

Current information (Y/N): Y

RCS size: SMALL

Orbital parameters

Period: 103.81 minutes

Inclination: 64.6979 deg

SMA: 7316.753 km

Apoapsis: 994.208 km

Periapsis: 883.027 km

RAAN: 305.7096 deg

Eccentricy: 0.00759773

Argument of periapsis: 253.8885 deg

Mean anomaly: 105.38 deg

Mean motion: 13.87155696 rev/day

Mean motion (dot): 0.00000225 rev/day2

B* drag term: 0.00026311885 1/REarth

Two-line elements (TLE)

Creation date: Oct. 8, 2025, 6:21 p.m.

Reference frame: TEME

Reference center: EARTH

Epoch: Oct. 8, 2025, 8:01 a.m. UTC

TLE line 0: 0 COSMOS 860 COOLANT

TLE line 1: 1 29195U 76103H 25281.33436428 .00000225 00000-0 26312-3 0 9990

TLE line 2: 2 29195 64.6979 305.7096 0075977 253.8885 105.3800 13.87155696604731

Live tracking on map

Real-time ground track for satellite COSMOS 860 COOLANT.

In-orbit conjunctions

A list of the most updated potential collisions computed for object COSMOS 860 COOLANT.

Target Orbit TCA Probability of collision Miss distance Type
CZ-6A DEB LEO 2025-04-14 04:11:56 0.0001721288 125.0 (m) DEBRIS
LANDSAT 3 SSO 2025-03-03 08:30:26 0.0001278842 265.0 (m) PAYLOAD

Associated space launch

Active radar satellite for ocean surveillance powered by a nuclear reactor.

COSMOS 860 COOLANT was lifted into orbit during the mission ‘Tsiklon-2 | US-A 12’, on board a Tsiklon-2 space rocket.

The launch took place on Oct. 17, 1976, 6:06 p.m. from 90.

For more information about the launch, click the button.

Launch to space Tsiklon-2 | US-A 12
Tsiklon-2 | US-A 12

Agency: N/A

Status: Launch Successful

Launch date: Oct. 17, 1976, 6:06 p.m. UTC

Rocket: Tsiklon-2

Launch pad: 90

Location: Baikonur Cosmodrome, Republic of Kazakhstan

...

Latest news about this satellite

There are no fresh news available about this satellite. Check back as we update our databases every day.


Newsletter sign-up

Weekly statistics, charts and insights to help you stay on top of the space industry.